Flag for Germany Weather past 2 weeks in Aschaffenburg, Bavaria, Germany

Now
59 °F

Thunderstorms. Low clouds.


Feels Like: 59 °F
Forecast: 50 / 65 °F
Wind: 1 mph from West

Location: Frankfurt / M-Flughafen

Current Time: Aug 31, 2014 at 4:46:23 AM

Latest Report: Aug 31, 2014 at 4:00 AM


Visibility: 9 mi

Pressure: 29.99 "Hg

Humidity: 91%

Dew point: 56 °F

Location of AschaffenburgLocation

Historic Weather in Aschaffenburg — Graph

°F

Aschaffenburg temperature yesterday

Maximum temperature yesterday: 73 °F (at 4:00 PM)
Minimum temperature yesterday: 58 °F (at 7:00 AM)
Average temperature yesterday: 66 °F

Past Weeks' High & Low Weather Summary

 TemperatureHumidityPressure
High75 °F (Aug 29, 3:00 PM)96% (Aug 19, 7:00 AM)30.13 "Hg (Aug 19, 7:00 AM)
Low46 °F (Aug 22, 4:00 AM)32% (Aug 22, 5:00 PM)29.66 "Hg (Aug 26, 8:00 AM)
Average60 °F74%29.97 "Hg
* Reported Aug 16 4:00 AM — Aug 31 4:00 AM, Aschaffenburg, Weather by CustomWeather, © 2014

Note: Actual official high and low records may vary slightly from our data, if they occured in-between our weather recording intervals... More about our weather records

Advertising

Aschaffenburg weather history for previous 24 hours

 ConditionsComfort  
Time TempWeatherWind HumidityBarometerVisibility
4:00 AM
Aug 31
59 °FThunderstorms. Low clouds.1 mph91%29.99 "Hg9 mi
3:00 AM59 °FThundershowers. Low clouds.2 mph89%30.01 "Hg7 mi
2:00 AM62 °FSprinkles. Overcast.1 mph91%30.01 "Hg7 mi
1:00 AM63 °FSprinkles. Overcast.2 mph85%30.01 "Hg12 mi
12:00 AM64 °FOvercast.2 mph82%30.02 "Hg17 mi
10:00 PM
Aug 30
65 °FOvercast.2 mph80%30.03 "Hg14 mi
9:00 PM67 °FOvercast.3 mph64%30.03 "Hg25 mi
8:00 PM69 °FOvercast.6 mph61%30.02 "Hg28 mi
7:00 PM70 °FSprinkles. Overcast.6 mph56%30.03 "Hg22 mi
6:00 PM71 °FOvercast.6 mph54%30.03 "Hg28 mi
4:00 PM73 °FOvercast.5 mph50%30.03 "Hg28 mi
3:00 PM71 °FOvercast.5 mph52%30.05 "Hg28 mi
2:00 PM70 °FPartly sunny.5 mph58%30.07 "Hg25 mi
1:00 PM71 °FPartly sunny.7 mph53%30.08 "Hg25 mi
12:00 PM68 °FPartly sunny.5 mph66%30.09 "Hg25 mi
10:00 AM64 °FPartly sunny.3 mph80%30.10 "Hg22 mi
9:00 AM61 °FOvercast.3 mph89%30.09 "Hg19 mi
8:00 AM59 °FPartly sunny.3 mph92%30.09 "Hg19 mi
7:00 AM58 °FPartly sunny.2 mph90%30.08 "Hg22 mi
6:00 AM59 °FPassing clouds.2 mph90%30.07 "Hg22 mi
4:00 AM61 °FPassing clouds.3 mph88%30.07 "Hg25 mi
Weather by CustomWeather, © 2014

See weather overviewHow to use our weather pages